UAE833 OMDB-OBBI

Flight info

Callsign UAE833
Flight time 0h 49m
Altitude 26000
Route NABIX P699 ORMID Y856 ORDIG
Aircraft A359/H-SDE2E3GHIJ3J4J5LM1ORWXY/LB1D1

Departure

Time 2026-05-06 22:56
Airport Dubai International Airport (OMDB)

Arrival

Time 2026-05-06 23:46
Airport Bahrain International Airport (OBBI)
Time Latitude Longitude Altitude Speed Heading
2026-05-06 21:36 25.24885 55.36298 27 ft 0 kts 211°
2026-05-06 22:31 25.24887 55.36299 27 ft 2 kts 211°
2026-05-06 22:32 25.24908 55.36314 27 ft 4 kts 211°
2026-05-06 22:32 25.24928 55.36327 26 ft 4 kts 210°
2026-05-06 22:32 25.24950 55.36343 27 ft 4 kts 226°
2026-05-06 22:32 25.24959 55.36361 27 ft 2 kts 300°
2026-05-06 22:33 25.24947 55.36383 27 ft 4 kts 301°
2026-05-06 22:33 25.24933 55.36408 28 ft 4 kts 301°
2026-05-06 22:33 25.24919 55.36434 28 ft 4 kts 301°
2026-05-06 22:33 25.24905 55.36459 28 ft 4 kts 301°
2026-05-06 22:34 25.24891 55.36485 28 ft 4 kts 301°
2026-05-06 22:34 25.24877 55.36510 27 ft 4 kts 301°
2026-05-06 22:34 25.24863 55.36536 27 ft 4 kts 301°
2026-05-06 22:34 25.24849 55.36562 27 ft 4 kts 300°
2026-05-06 22:35 25.24836 55.36587 28 ft 4 kts 300°
2026-05-06 22:35 25.24822 55.36612 28 ft 4 kts 300°
2026-05-06 22:35 25.24809 55.36639 28 ft 4 kts 297°
2026-05-06 22:35 25.24803 55.36653 28 ft 2 kts 295°
2026-05-06 22:40 25.24803 55.36652 28 ft 1 kts 294°
2026-05-06 22:40 25.24819 55.36616 28 ft 10 kts 297°
2026-05-06 22:40 25.24856 55.36543 28 ft 12 kts 300°
2026-05-06 22:41 25.24962 55.36358 27 ft 16 kts 301°
2026-05-06 22:41 25.24972 55.36338 27 ft 0 kts 301°
2026-05-06 22:41 25.24988 55.36310 27 ft 8 kts 301°
2026-05-06 22:42 25.25021 55.36252 27 ft 10 kts 302°
2026-05-06 22:42 25.25063 55.36179 27 ft 12 kts 301°
2026-05-06 22:42 25.25113 55.36090 28 ft 15 kts 302°
2026-05-06 22:42 25.25171 55.35987 27 ft 17 kts 301°
2026-05-06 22:43 25.25236 55.35871 27 ft 19 kts 301°
2026-05-06 22:43 25.25307 55.35743 27 ft 20 kts 302°
2026-05-06 22:43 25.25382 55.35613 27 ft 19 kts 301°
2026-05-06 22:43 25.25449 55.35494 27 ft 19 kts 302°
2026-05-06 22:44 25.25518 55.35369 27 ft 14 kts 302°
2026-05-06 22:44 25.25526 55.35355 27 ft 4 kts 302°
2026-05-06 22:44 25.25563 55.35290 27 ft 14 kts 302°
2026-05-06 22:44 25.25617 55.35195 27 ft 16 kts 301°
2026-05-06 22:45 25.25686 55.35161 27 ft 11 kts 26°
2026-05-06 22:45 25.25761 55.35209 27 ft 14 kts 31°
2026-05-06 22:45 25.25849 55.35269 27 ft 16 kts 32°
2026-05-06 22:45 25.25950 55.35336 28 ft 18 kts 32°
2026-05-06 22:46 25.26010 55.35451 28 ft 19 kts 85°
2026-05-06 22:46 25.25972 55.35591 28 ft 20 kts 120°
2026-05-06 22:46 25.25892 55.35727 28 ft 16 kts 122°
2026-05-06 22:46 25.25841 55.35817 28 ft 15 kts 122°
2026-05-06 22:47 25.25784 55.35920 29 ft 17 kts 122°
2026-05-06 22:47 25.25718 55.36037 29 ft 19 kts 122°
2026-05-06 22:47 25.25644 55.36169 29 ft 21 kts 122°
2026-05-06 22:47 25.25573 55.36296 29 ft 18 kts 122°
2026-05-06 22:48 25.25505 55.36415 28 ft 20 kts 121°
2026-05-06 22:48 25.25428 55.36552 28 ft 22 kts 121°
2026-05-06 22:48 25.25351 55.36691 28 ft 19 kts 122°
2026-05-06 22:48 25.25278 55.36820 28 ft 21 kts 122°
2026-05-06 22:49 25.25210 55.36941 28 ft 15 kts 122°
2026-05-06 22:49 25.25153 55.37043 29 ft 17 kts 122°
2026-05-06 22:49 25.25088 55.37157 30 ft 19 kts 122°
2026-05-06 22:49 25.25016 55.37286 30 ft 21 kts 121°
2026-05-06 22:50 25.24972 55.37364 30 ft 0 kts 122°
2026-05-06 22:50 25.24951 55.37402 30 ft 13 kts 122°
2026-05-06 22:50 25.24898 55.37496 30 ft 16 kts 122°
2026-05-06 22:50 25.24836 55.37605 29 ft 17 kts 122°
2026-05-06 22:51 25.24781 55.37703 29 ft 12 kts 121°
2026-05-06 22:51 25.24736 55.37784 29 ft 8 kts 122°
2026-05-06 22:51 25.24734 55.37786 29 ft 0 kts 122°
2026-05-06 22:52 25.24734 55.37787 29 ft 0 kts 122°
2026-05-06 22:52 25.24722 55.37808 29 ft 7 kts 122°
2026-05-06 22:52 25.24715 55.37862 29 ft 7 kts 72°
2026-05-06 22:53 25.24730 55.37880 29 ft 0 kts 35°
2026-05-06 22:54 25.24756 55.37900 29 ft 10 kts 34°
2026-05-06 22:54 25.24813 55.37940 31 ft 8 kts 32°
2026-05-06 22:55 25.24852 55.37935 31 ft 4 kts 321°
2026-05-06 22:55 25.24873 55.37905 32 ft 6 kts 301°
2026-05-06 22:55 25.24934 55.37796 32 ft 41 kts 301°
2026-05-06 22:55 25.25218 55.37284 34 ft 113 kts 301°
2026-05-06 22:56 25.25735 55.36349 40 ft 171 kts 302°
2026-05-06 22:56 25.26362 55.35205 646 ft 179 kts 301°
2026-05-06 22:56 25.27018 55.34010 1358 ft 187 kts 301°
2026-05-06 22:56 25.27752 55.32698 1795 ft 214 kts 301°
2026-05-06 22:57 25.28581 55.31219 2396 ft 233 kts 300°
2026-05-06 22:57 25.29221 55.29475 2872 ft 256 kts 283°
2026-05-06 22:57 25.29464 55.27490 3476 ft 265 kts 270°
2026-05-06 22:57 25.29408 55.25475 4263 ft 266 kts 265°
2026-05-06 22:58 25.29258 55.23437 5058 ft 267 kts 263°
2026-05-06 22:58 25.29069 55.21384 5800 ft 270 kts 262°
2026-05-06 22:58 25.28854 55.19306 6520 ft 274 kts 262°
2026-05-06 22:58 25.28627 55.17200 7174 ft 279 kts 262°
2026-05-06 22:59 25.28388 55.15044 7833 ft 286 kts 262°
2026-05-06 22:59 25.28136 55.12835 8521 ft 293 kts 263°
2026-05-06 22:59 25.27880 55.10584 9234 ft 298 kts 263°
2026-05-06 22:59 25.27617 55.08288 9931 ft 304 kts 264°
2026-05-06 23:00 25.27349 55.05945 10602 ft 310 kts 264°
2026-05-06 23:00 25.27074 55.03558 11252 ft 319 kts 264°
2026-05-06 23:00 25.26786 55.01052 11593 ft 339 kts 264°
2026-05-06 23:00 25.26479 54.98398 11921 ft 357 kts 264°
2026-05-06 23:01 25.26157 54.95627 12390 ft 369 kts 264°
2026-05-06 23:01 25.25828 54.92789 13002 ft 376 kts 264°
2026-05-06 23:01 25.25493 54.89910 13647 ft 382 kts 264°
2026-05-06 23:01 25.25151 54.86979 14268 ft 385 kts 264°
2026-05-06 23:02 25.24807 54.84041 14757 ft 385 kts 264°
2026-05-06 23:02 25.24463 54.81113 14967 ft 385 kts 263°
2026-05-06 23:02 25.24117 54.78176 14880 ft 385 kts 263°
2026-05-06 23:02 25.23778 54.75289 14790 ft 385 kts 263°
2026-05-06 23:03 25.23433 54.72354 14783 ft 385 kts 264°
2026-05-06 23:03 25.23082 54.69379 14785 ft 386 kts 264°
2026-05-06 23:03 25.22741 54.66485 14785 ft 386 kts 264°
2026-05-06 23:03 25.22396 54.63546 14821 ft 386 kts 264°
2026-05-06 23:04 25.22046 54.60595 15214 ft 389 kts 263°
2026-05-06 23:04 25.21695 54.57639 15981 ft 387 kts 263°
2026-05-06 23:04 25.21370 54.54699 16788 ft 385 kts 265°
2026-05-06 23:04 25.21469 54.51749 17543 ft 385 kts 279°
2026-05-06 23:05 25.21980 54.48848 18233 ft 386 kts 283°
2026-05-06 23:05 25.22673 54.45975 18819 ft 389 kts 286°
2026-05-06 23:05 25.23450 54.43099 19417 ft 392 kts 287°
2026-05-06 23:05 25.24248 54.40212 20053 ft 394 kts 287°
2026-05-06 23:06 25.25036 54.37316 20695 ft 396 kts 286°
2026-05-06 23:06 25.25812 54.34384 21351 ft 397 kts 285°
2026-05-06 23:06 25.26571 54.31443 21974 ft 400 kts 285°
2026-05-06 23:06 25.27325 54.28476 22583 ft 402 kts 284°
2026-05-06 23:07 25.28069 54.25485 23188 ft 405 kts 284°
2026-05-06 23:07 25.28812 54.22467 23714 ft 409 kts 284°
2026-05-06 23:07 25.29554 54.19437 24238 ft 411 kts 284°
2026-05-06 23:07 25.30304 54.16378 24783 ft 412 kts 284°
2026-05-06 23:08 25.31060 54.13309 25334 ft 415 kts 283°
2026-05-06 23:08 25.31793 54.10221 25678 ft 416 kts 282°
2026-05-06 23:08 25.32459 54.07140 25770 ft 405 kts 281°
2026-05-06 23:08 25.33072 54.04159 25777 ft 390 kts 281°
2026-05-06 23:09 25.33661 54.01256 25794 ft 385 kts 281°
2026-05-06 23:09 25.34248 53.98367 25792 ft 385 kts 281°
2026-05-06 23:09 25.34840 53.95483 25794 ft 385 kts 281°
2026-05-06 23:09 25.35442 53.92595 25795 ft 385 kts 281°
2026-05-06 23:10 25.36045 53.89712 25795 ft 385 kts 281°
2026-05-06 23:10 25.36652 53.86824 25783 ft 385 kts 281°
2026-05-06 23:10 25.37259 53.83946 25789 ft 385 kts 281°
2026-05-06 23:10 25.37861 53.81105 25788 ft 384 kts 281°
2026-05-06 23:11 25.38466 53.78226 25791 ft 384 kts 281°
2026-05-06 23:11 25.39070 53.75346 25796 ft 385 kts 281°
2026-05-06 23:11 25.39674 53.72467 25798 ft 384 kts 281°
2026-05-06 23:11 25.40277 53.69587 25783 ft 385 kts 281°
2026-05-06 23:12 25.40879 53.66705 25792 ft 385 kts 281°
2026-05-06 23:12 25.41482 53.63821 25800 ft 385 kts 281°
2026-05-06 23:12 25.42085 53.60939 25786 ft 385 kts 281°
2026-05-06 23:12 25.42688 53.58055 25785 ft 385 kts 281°
2026-05-06 23:13 25.43293 53.55176 25797 ft 384 kts 281°
2026-05-06 23:13 25.43894 53.52293 25798 ft 385 kts 281°
2026-05-06 23:13 25.44494 53.49409 25785 ft 384 kts 281°
2026-05-06 23:13 25.45091 53.46524 25796 ft 385 kts 281°
2026-05-06 23:14 25.45689 53.43640 25794 ft 385 kts 281°
2026-05-06 23:14 25.46285 53.40765 25795 ft 385 kts 281°
2026-05-06 23:14 25.46882 53.37881 25792 ft 385 kts 281°
2026-05-06 23:14 25.47478 53.35000 25794 ft 384 kts 281°
2026-05-06 23:15 25.48073 53.32122 25796 ft 383 kts 281°
2026-05-06 23:15 25.48667 53.29245 25796 ft 383 kts 281°
2026-05-06 23:15 25.49252 53.26414 25799 ft 383 kts 281°
2026-05-06 23:15 25.49852 53.23503 25804 ft 383 kts 281°
2026-05-06 23:16 25.50448 53.20627 25795 ft 383 kts 281°
2026-05-06 23:16 25.51039 53.17752 25793 ft 383 kts 281°
2026-05-06 23:16 25.51626 53.14880 25789 ft 383 kts 281°
2026-05-06 23:16 25.52214 53.11999 25794 ft 383 kts 281°
2026-05-06 23:17 25.52801 53.09128 25795 ft 383 kts 281°
2026-05-06 23:17 25.53389 53.06251 25791 ft 383 kts 281°
2026-05-06 23:17 25.53973 53.03385 25792 ft 383 kts 281°
2026-05-06 23:17 25.54559 53.00506 25790 ft 383 kts 281°
2026-05-06 23:18 25.55144 52.97629 25793 ft 383 kts 280°
2026-05-06 23:18 25.55721 52.94792 25796 ft 382 kts 280°
2026-05-06 23:18 25.56383 52.91944 25793 ft 384 kts 286°
2026-05-06 23:18 25.57425 52.89204 25803 ft 386 kts 292°
2026-05-06 23:19 25.58615 52.86540 25796 ft 386 kts 294°
2026-05-06 23:19 25.59868 52.83905 25794 ft 387 kts 295°
2026-05-06 23:19 25.61153 52.81288 25796 ft 386 kts 295°
2026-05-06 23:19 25.62447 52.78679 25795 ft 386 kts 296°
2026-05-06 23:20 25.63739 52.76072 25797 ft 386 kts 295°
2026-05-06 23:20 25.65025 52.73464 25800 ft 386 kts 295°
2026-05-06 23:20 25.66306 52.70851 25798 ft 386 kts 295°
2026-05-06 23:20 25.67582 52.68235 25802 ft 386 kts 295°
2026-05-06 23:21 25.68856 52.65619 25805 ft 385 kts 295°
2026-05-06 23:21 25.70125 52.63006 25807 ft 385 kts 295°
2026-05-06 23:21 25.71389 52.60403 25802 ft 385 kts 295°
2026-05-06 23:21 25.72665 52.57774 25800 ft 385 kts 295°
2026-05-06 23:22 25.73935 52.55155 25804 ft 385 kts 295°
2026-05-06 23:22 25.75202 52.52539 25798 ft 385 kts 295°
2026-05-06 23:22 25.76472 52.49920 25800 ft 385 kts 295°
2026-05-06 23:22 25.77722 52.47296 25805 ft 385 kts 294°
2026-05-06 23:23 25.78950 52.44656 25803 ft 385 kts 294°
2026-05-06 23:23 25.80166 52.42012 25801 ft 385 kts 294°
2026-05-06 23:23 25.81379 52.39371 25801 ft 384 kts 294°
2026-05-06 23:23 25.82596 52.36726 25805 ft 385 kts 294°
2026-05-06 23:24 25.83817 52.34085 25803 ft 385 kts 294°
2026-05-06 23:24 25.85039 52.31444 25805 ft 385 kts 294°
2026-05-06 23:24 25.86274 52.28818 25802 ft 386 kts 296°
2026-05-06 23:24 25.87813 52.26355 25817 ft 389 kts 306°
2026-05-06 23:25 25.89554 52.24051 25810 ft 390 kts 307°
2026-05-06 23:25 25.91362 52.21800 25812 ft 391 kts 308°
2026-05-06 23:25 25.93208 52.19570 25811 ft 391 kts 309°
2026-05-06 23:25 25.95065 52.17357 25813 ft 391 kts 309°
2026-05-06 23:26 25.96920 52.15143 25814 ft 391 kts 309°
2026-05-06 23:26 25.98769 52.12930 25809 ft 391 kts 309°
2026-05-06 23:26 26.00619 52.10707 25814 ft 391 kts 309°
2026-05-06 23:26 26.02456 52.08491 25571 ft 390 kts 309°
2026-05-06 23:27 26.04292 52.06270 25254 ft 390 kts 309°
2026-05-06 23:27 26.06131 52.04049 24776 ft 391 kts 309°
2026-05-06 23:27 26.07969 52.01826 24273 ft 390 kts 309°
2026-05-06 23:27 26.09798 51.99609 23782 ft 388 kts 309°
2026-05-06 23:28 26.11599 51.97423 23287 ft 388 kts 309°
2026-05-06 23:28 26.13458 51.95163 22661 ft 397 kts 309°
2026-05-06 23:28 26.15308 51.92909 22103 ft 401 kts 310°
2026-05-06 23:28 26.17221 51.90585 21567 ft 401 kts 310°
2026-05-06 23:29 26.19076 51.88330 21054 ft 399 kts 310°
2026-05-06 23:29 26.20945 51.86062 20545 ft 397 kts 310°
2026-05-06 23:29 26.22803 51.83806 20042 ft 394 kts 311°
2026-05-06 23:29 26.24567 51.81494 19555 ft 390 kts 303°
2026-05-06 23:30 26.25996 51.78946 19069 ft 387 kts 298°
2026-05-06 23:30 26.27288 51.76327 18593 ft 386 kts 296°
2026-05-06 23:30 26.28508 51.73660 18119 ft 386 kts 295°
2026-05-06 23:30 26.29686 51.70984 17580 ft 385 kts 295°
2026-05-06 23:31 26.30851 51.68306 17048 ft 383 kts 294°
2026-05-06 23:31 26.32010 51.65643 16522 ft 381 kts 294°
2026-05-06 23:31 26.33173 51.63001 16005 ft 379 kts 295°
2026-05-06 23:31 26.34335 51.60374 15498 ft 376 kts 295°
2026-05-06 23:32 26.35490 51.57770 14996 ft 374 kts 295°
2026-05-06 23:32 26.36639 51.55186 14504 ft 371 kts 295°
2026-05-06 23:32 26.37713 51.52580 14026 ft 369 kts 290°
2026-05-06 23:32 26.38653 51.49925 13539 ft 367 kts 290°
2026-05-06 23:33 26.39536 51.47276 13007 ft 363 kts 288°
2026-05-06 23:33 26.40387 51.44632 12481 ft 360 kts 288°
2026-05-06 23:33 26.41215 51.42012 11969 ft 356 kts 288°
2026-05-06 23:33 26.42030 51.39423 11456 ft 349 kts 288°
2026-05-06 23:34 26.42814 51.36940 10957 ft 331 kts 288°
2026-05-06 23:34 26.43565 51.34587 10552 ft 312 kts 289°
2026-05-06 23:34 26.44276 51.32359 10418 ft 302 kts 288°
2026-05-06 23:34 26.44972 51.30177 10225 ft 295 kts 288°
2026-05-06 23:35 26.45411 51.27998 9862 ft 291 kts 273°
2026-05-06 23:35 26.45203 51.25762 9326 ft 285 kts 252°
2026-05-06 23:35 26.44361 51.23773 8787 ft 283 kts 240°
2026-05-06 23:35 26.43342 51.21899 8263 ft 282 kts 239°
2026-05-06 23:36 26.42297 51.20039 7868 ft 285 kts 238°
2026-05-06 23:36 26.41250 51.18183 7554 ft 280 kts 239°
2026-05-06 23:36 26.40227 51.16364 7280 ft 280 kts 239°
2026-05-06 23:36 26.39195 51.14530 6992 ft 278 kts 239°
2026-05-06 23:37 26.38172 51.12709 6719 ft 277 kts 239°
2026-05-06 23:37 26.37147 51.10886 6443 ft 277 kts 239°
2026-05-06 23:37 26.36123 51.09072 6167 ft 276 kts 239°
2026-05-06 23:37 26.35099 51.07253 5953 ft 278 kts 239°
2026-05-06 23:38 26.34073 51.05436 5741 ft 276 kts 239°
2026-05-06 23:38 26.33056 51.03622 5525 ft 275 kts 240°
2026-05-06 23:38 26.32041 51.01819 5321 ft 274 kts 240°
2026-05-06 23:38 26.31033 51.00024 5097 ft 274 kts 240°
2026-05-06 23:39 26.30017 50.98228 4889 ft 273 kts 239°
2026-05-06 23:39 26.29006 50.96435 4683 ft 274 kts 239°
2026-05-06 23:39 26.27991 50.94633 4474 ft 275 kts 240°
2026-05-06 23:39 26.26974 50.92836 4256 ft 273 kts 240°
2026-05-06 23:40 26.25961 50.91052 4036 ft 273 kts 241°
2026-05-06 23:40 26.24956 50.89265 3813 ft 271 kts 240°
2026-05-06 23:40 26.23959 50.87502 3632 ft 266 kts 240°
2026-05-06 23:40 26.22986 50.85785 3194 ft 257 kts 242°
2026-05-06 23:41 26.22058 50.84148 2887 ft 241 kts 242°
2026-05-06 23:41 26.21171 50.82577 2653 ft 238 kts 242°
2026-05-06 23:41 26.20301 50.81042 2413 ft 231 kts 243°
2026-05-06 23:41 26.19473 50.79544 2181 ft 223 kts 248°
2026-05-06 23:42 26.19128 50.78505 2046 ft 209 kts 267°
2026-05-06 23:42 26.19251 50.77031 2007 ft 178 kts 298°
2026-05-06 23:42 26.19883 50.75919 2009 ft 166 kts 309°
2026-05-06 23:42 26.20522 50.74936 1988 ft 149 kts 310°
2026-05-06 23:43 26.21120 50.74008 1947 ft 149 kts 310°
2026-05-06 23:43 26.21680 50.73033 1625 ft 150 kts 304°
2026-05-06 23:43 26.22139 50.72037 1446 ft 138 kts 303°
2026-05-06 23:43 26.22573 50.71123 1241 ft 130 kts 306°
2026-05-06 23:44 26.23071 50.70278 1113 ft 131 kts 311°
2026-05-06 23:44 26.23582 50.69424 963 ft 133 kts 308°
2026-05-06 23:44 26.24094 50.68562 805 ft 133 kts 309°
2026-05-06 23:44 26.24600 50.67689 719 ft 135 kts 306°
2026-05-06 23:45 26.25090 50.66821 573 ft 131 kts 308°
2026-05-06 23:45 26.25578 50.65981 324 ft 128 kts 305°
2026-05-06 23:45 26.26062 50.65124 155 ft 134 kts 306°
2026-05-06 23:45 26.26565 50.64252 28 ft 131 kts 305°
2026-05-06 23:46 26.27004 50.63501 24 ft 87 kts 302°
2026-05-06 23:46 26.27181 50.63193 24 ft 25 kts 302°
2026-05-06 23:46 26.27250 50.63021 22 ft 24 kts 275°
2026-05-06 23:46 26.27255 50.62911 25 ft 7 kts 273°
2026-05-06 23:47 26.27250 50.62854 25 ft 7 kts 244°
2026-05-06 23:47 26.27207 50.62835 30 ft 6 kts 172°
2026-05-06 23:47 26.27174 50.62867 27 ft 7 kts 125°
2026-05-06 23:47 26.27132 50.62906 28 ft 9 kts 168°
2026-05-06 23:48 26.27072 50.62882 28 ft 10 kts 198°
2026-05-06 23:48 26.27013 50.62921 28 ft 12 kts 123°
2026-05-06 23:48 26.26963 50.63009 28 ft 12 kts 122°
2026-05-06 23:48 26.26942 50.63041 27 ft 4 kts 135°
2026-05-06 23:49 26.26912 50.63044 27 ft 5 kts 195°
2026-05-06 23:49 26.26868 50.63018 27 ft 6 kts 211°
2026-05-06 23:49 26.26866 50.63016 27 ft 1 kts 211°
2026-05-06 23:49 26.26852 50.63007 27 ft 0 kts 211°
2026-05-06 23:58 26.25292 50.66475 458 ft 117 kts 306°
2026-05-06 23:58 26.25855 50.65488 239 ft 120 kts 305°
2026-05-06 23:59 26.26425 50.64497 46 ft 126 kts 305°
2026-05-06 23:59 26.25674 50.65809 286 ft 94 kts 306°
2026-05-06 23:59 26.26153 50.64967 120 ft 113 kts 306°
2026-05-06 23:59 26.26716 50.63992 27 ft 119 kts 306°
2026-05-07 00:00 26.27159 50.63248 24 ft 96 kts 304°
2026-05-07 00:00 26.25247 50.66551 480 ft 113 kts 306°
2026-05-07 00:00 26.24786 50.67350 671 ft 129 kts 307°
2026-05-07 00:00 26.24979 50.67013 627 ft 131 kts 308°